sat.trackr.live / text

‹ back to catalog

2023-091J

NORAD 57174 · 2023-091J

PAYLOAD ACTIVE UNKNOWN

§ Identity

Operator
Country
CIS
Launch date
2023-06-27
Launch site
VOSTO
Launch vehicle
Mass (kg)
RCS (m²)

External: N2YO · Heavens-Above · Gunter

§ Orbital elements

Epoch: 2026-05-25T04:27:41.433408Z

Period
95.13 min
Inclination
97.5070°
Eccentricity
0.0012225
Mean motion
15.13743214 rev/d
Perigee alt
516.4 km
Apogee alt
533.2 km
Semi-major
6,902.9 km
B*
1.7260e-4
RAAN
198.6115°
Arg perigee
221.7721°
Mean anomaly
138.2578°
Rev number
16,015

§ Raw data

2023-091J1 57174U 23091J   26145.18589622  .00003050  00000+0  17260-3 0  99942 57174  97.5070 198.6115 0012225 221.7721 138.2578 15.13743214160157

JSON: /api/v1/satellites/57174 · /tle

For live sub-satellite position, see the globe view (requires WebGL).

§ Visibility from observer

Set your observer location to see the next 7 days of passes ≥ 10°. The values pass through the URL so the page stays shareable.

No JS? Fill the form by hand. The geolocation button needs JavaScript.

§ Radio — SatNOGS DB

ModeDescriptionDownlinkUplink
DOKA DOKA 435.790 MHz
AFSK Mode U - Transmitter 435.790 MHz

2 transmitters · refreshed weekly from db.satnogs.org